Flag for U.S.A. Weather past 2 weeks in Irvine, California, U.S.A.

Now
75 °F

Partly sunny.


Feels Like: 77 °F
Forecast: 67 / 80 °F
Wind: 8 mph from Southwest

Location: John Wayne Airport-Orange County Airport

Current Time: Sep 1, 2015 at 2:04:21 PM

Latest Report: Sep 1, 2015 at 12:53 PM


Visibility: 10 mi

Pressure: 29.91 "Hg

Humidity: 60%

Dew point: 60 °F

Location of IrvineLocation

Historic Weather in Irvine — Graph

°F

Irvine temperature yesterday

Maximum temperature yesterday: 77 °F (at 10:53 AM)
Minimum temperature yesterday: 69 °F (at 4:53 AM)
Average temperature yesterday: 72 °F

Past Weeks' High & Low Weather Summary

 TemperatureHumidityPressure
High91 °F (Aug 28, 11:53 AM)93% (Aug 26, 3:53 AM)29.98 "Hg (Aug 26, 3:53 AM)
Low67 °F (Aug 23, 1:53 AM)32% (Aug 28, 11:53 AM)29.80 "Hg (Aug 28, 6:53 PM)
Average74 °F72%29.89 "Hg
* Reported Aug 17 12:53 PM — Sep 1 12:53 PM, Irvine, Weather by CustomWeather, © 2015

Note: Actual official high and low records may vary slightly from our data, if they occured in-between our weather recording intervals... More about our weather records

Advertising

Irvine weather history for previous 24 hours

 ConditionsComfort  
Time TempWeatherWind HumidityBarometerVisibility
12:53 PM
Tue, Sep 1
75 °FPartly sunny.8 mph60%29.91 "Hg10 mi
11:53 AM76 °FPartly sunny.6 mph58%29.92 "Hg10 mi
10:53 AM75 °FPartly sunny.9 mph60%29.94 "Hg10 mi
9:53 AM73 °FPartly sunny.5 mph64%29.93 "Hg10 mi
8:53 AM71 °FPartly sunny.No wind66%29.92 "Hg10 mi
7:53 AM70 °FPartly sunny.7 mph66%29.92 "Hg10 mi
6:53 AM70 °FPassing clouds.7 mph68%29.91 "Hg10 mi
5:53 AM70 °FPassing clouds.8 mph68%29.90 "Hg10 mi
4:53 AM70 °FOvercast.6 mph73%29.89 "Hg10 mi
3:53 AM70 °FOvercast.5 mph76%29.89 "Hg10 mi
2:53 AM70 °FOvercast.No wind76%29.89 "Hg10 mi
1:53 AM70 °FOvercast.5 mph76%29.90 "Hg10 mi
12:53 AM70 °FOvercast.5 mph76%29.90 "Hg10 mi
11:53 PM
Mon, Aug 31
70 °FOvercast.6 mph76%29.90 "Hg10 mi
10:53 PM70 °FOvercast.7 mph76%29.90 "Hg10 mi
10:00 PM70 °FOvercast.5 mph78%29.90 "Hg10 mi
7:53 PM71 °FScattered clouds.7 mph76%29.85 "Hg10 mi
6:53 PM71 °FScattered clouds.8 mph76%29.84 "Hg10 mi
5:53 PM73 °FPassing clouds.9 mph71%29.84 "Hg10 mi
4:53 PM74 °FPassing clouds.12 mph69%29.85 "Hg10 mi
3:53 PM76 °FSunny.13 mph64%29.85 "Hg10 mi
2:53 PM76 °FPassing clouds.12 mph62%29.87 "Hg10 mi
Weather by CustomWeather, © 2015

See weather overviewHow to use our weather pages